Weather History for Dryden, TX

Change the Weather History Date:

Tuesday, April 29, 2014

  Actual Average (KFST) Record (KFST)
Temperature  
Mean Temperature 74 °F -  
Max Temperature 82 °F 84 °F 102 °F (2011)
Min Temperature 63 °F 55 °F 45 °F (1998)
Cooling Degree Days 9    
Growing Degree Days 24 (Base 50)    
Moisture  
Dew Point 19 °F    
Average Humidity 13    
Maximum Humidity 17    
Minimum Humidity 8    
Precipitation  
Precipitation 0.00 in - - ()
Sea Level Pressure  
Sea Level Pressure 29.82 in    
Wind  
Wind Speed 13 mph (North)    
Max Wind Speed 25 mph    
Max Gust Speed 36 mph    
Averages and records for this station are not official NWS values.
T = Trace of Precipitation, MM = Missing Value Source: NWS Daily Summary

Daily Weather History Graph

Daily Weather History Graph

Search for Another Location

Airport:

Trip Planner

Search our weather history database for the weather conditions in past years. The results will help you decide how hot, cold, wet, or windy it might be!

Date:

Astronomy

Apr. 29, 2014 Rise Set
Actual Time 7:07 AM CDT 8:25 PM CDT
Civil Twilight 6:42 AM CDT 8:50 PM CDT
Nautical Twilight 6:12 AM CDT 9:20 PM CDT
Astronomical Twilight 5:41 AM CDT 9:51 PM CDT
Moon 7:26 AM CDT (4/29) 9:05 PM CDT (4/29)
Length of Visible Light 14h 07m
Length of Day
13h 17m
New Moon, 0% of the Moon is Illuminated
Apr 29
New Moon
May 6
First Quarter
May 14
Full
May 21
Last Quarter
May 28
New

Hourly Weather History & Observations

Time (CDT) Temp. Dew Point Humidity Pressure Visibility Wind Dir Wind Speed Gust Speed Precip Events Conditions
12:53 AM 79.0 °F 21.9 °F 12% 29.62 in - Variable 3.5 mph - N/A   Unknown
1:53 AM 75.0 °F 21.9 °F 14% 29.65 in - West 4.6 mph - N/A   Unknown
2:53 AM 79.0 °F 21.9 °F 12% 29.66 in - NNW 16.1 mph - N/A   Unknown
3:53 AM 75.9 °F 19.9 °F 12% 29.70 in - North 23.0 mph 31.1 mph N/A   Unknown
4:53 AM 73.0 °F 9.0 °F 8% 29.71 in - NNW 25.3 mph 34.5 mph N/A   Unknown
5:53 AM 71.1 °F 7.0 °F 8% 29.73 in - NNW 19.6 mph 29.9 mph N/A   Unknown
6:53 AM 71.1 °F 6.1 °F 8% 29.76 in - NW 19.6 mph 35.7 mph N/A   Unknown
7:53 AM 69.1 °F 10.9 °F 11% 29.81 in - NNW 23.0 mph 29.9 mph N/A   Unknown
8:53 AM 70.0 °F 18.0 °F 14% 29.85 in - North 18.4 mph 26.5 mph N/A   Unknown
9:53 AM 72.0 °F 24.1 °F 17% 29.88 in - NNE 16.1 mph 23.0 mph N/A   Unknown
10:53 AM 75.0 °F 26.1 °F 16% 29.87 in - NNE 15.0 mph - N/A   Unknown
11:53 AM 75.9 °F 27.0 °F 16% 29.90 in - North 11.5 mph - N/A   Unknown
12:53 PM 77.0 °F 24.1 °F 14% 29.88 in - North 16.1 mph 28.8 mph N/A   Unknown
1:53 PM 78.1 °F 23.0 °F 13% 29.87 in - NNW 10.4 mph 27.6 mph N/A   Unknown
2:53 PM 80.1 °F 23.0 °F 12% 29.85 in - NW 10.4 mph 25.3 mph N/A   Unknown
3:53 PM 81.0 °F 24.1 °F 12% 29.83 in - North 9.2 mph 25.3 mph N/A   Unknown
4:53 PM 82.0 °F 26.1 °F 13% 29.82 in - North 10.4 mph 25.3 mph N/A   Unknown
5:53 PM 81.0 °F 23.0 °F 12% 29.82 in - North 15.0 mph 23.0 mph N/A   Unknown
6:53 PM 80.1 °F 21.9 °F 12% 29.82 in - North 11.5 mph 24.2 mph N/A   Unknown
7:53 PM 77.0 °F 21.0 °F 12% 29.84 in - North 13.8 mph - N/A   Unknown
8:53 PM 73.0 °F 18.0 °F 12% 29.87 in - NNE 12.7 mph - N/A   Unknown
9:53 PM 69.1 °F 16.0 °F 13% 29.90 in - NNE 9.2 mph - N/A   Unknown
10:53 PM 66.0 °F 16.0 °F 15% 29.95 in - NNE 5.8 mph - N/A   Unknown
11:53 PM 63.0 °F 17.1 °F 17% 29.99 in - NNE 12.7 mph 18.4 mph N/A   Unknown